Hourly Data Report for September 12, 2015

All times are specified in Local Standard Time (LST). Add 1 hour to adjust for Daylight Saving Time where and when it is observed.

TORONTO INTL A
ONTARIO

43°40'36.000" N
79°37'50.000" W
173.40 m
6158731
71624
YYZ

Download Data

Hourly Data (September 2015)
Hourly Data Report for September 12, 2015
Temp Definition
°C
Dew Point Temp Definition
°C
Rel Hum Definition
%
Wind Dir Definition
10's deg

Wind Spd Definition
km/h
Visibility Definition
km
Stn Press Definition
kPa
Hmdx Definition


Wind Chill Definition


Weather Definition


TIME
00:00 Legend Double Dagger 13.6 11.0 84 36 15 24.1 99.24     Rain
01:00 Legend Double Dagger 13.0 9.9 81 2 18 24.1 99.16     Rain
02:00 Legend Double Dagger 12.8 11.2 90 6 9 24.1 99.16     Rain
03:00 Legend Double Dagger 12.0 9.9 87 4 14 24.1 99.09     Rain
04:00 Legend Double Dagger 12.4 10.5 88 5 9 24.1 99.14     Rain
05:00 Legend Double Dagger 12.6 11.2 91 2 13 16.1 99.15     Rain
06:00 Legend Double Dagger 12.7 11.5 92 1 14 9.7 99.15     Rain,Fog
07:00 Legend Double Dagger 12.7 11.5 92 2 16 19.3 99.14     Rain
08:00 Legend Double Dagger 13.4 12.0 91 1 19 24.1 99.12     LegendNANA
09:00 Legend Double Dagger 14.2 11.6 84 2 25 24.1 99.11     LegendNANA
10:00 Legend Double Dagger 14.5 10.9 79 2 30 24.1 99.10     Cloudy
11:00 Legend Double Dagger 15.2 10.7 74 3 27 24.1 99.08     LegendNANA
12:00 Legend Double Dagger 15.3 10.7 74 2 24 24.1 99.05     LegendNANA
13:00 Legend Double Dagger 16.0 10.2 68 1 32 24.1 99.01     Cloudy
14:00 Legend Double Dagger 15.6 9.1 65 1 28 24.1 98.99     LegendNANA
15:00 Legend Double Dagger 14.9 10.2 73 36 28 24.1 98.91     Rain Showers
16:00 Legend Double Dagger 15.2 9.4 68 1 26 24.1 98.88     Rain Showers
17:00 Legend Double Dagger 14.8 9.4 70 3 20 24.1 98.87     LegendNANA
18:00 Legend Double Dagger 13.7 10.9 83 1 16 24.1 98.86     Rain Showers
19:00 Legend Double Dagger 12.7 10.8 88 35 17 24.1 98.91     Rain Showers
20:00 Legend Double Dagger 12.3 10.7 90 2 15 16.1 98.93     Rain
21:00 Legend Double Dagger 12.2 10.3 88 1 20 24.1 98.88     Rain
22:00 Legend Double Dagger 12.5 10.2 86 35 18 24.1 98.88     Rain
23:00 Legend Double Dagger 12.7 10.4 86 36 11 24.1 98.87     Rain

Notes on Data Quality.

Legend

  • E = Estimated
  • M = Missing
  • NA = Not Available
  • ‡ = Partner data that is not subject to review by the National Climate Archives
Date modified: